TIANMU-1 06

Last updated on Thu Nov 21 2024 00:02:20 GMT+0000 (Coordinated Universal Time)

1 55976U 23039D 24325.62500913 .00017187 00000+0 62567-3 0 9993 2 55976 97.4812 116.0060 0004849 15.0166 345.1217 15.28278309 92686
UTC large
Height (km)
Speed (km/s)
/
Latitude / Longitude
Inclination (degrees)
Orbital Period (minutes)
Azimuth
Elevation
Range (km)
Doppler Factor

Next 0 passes for location: London (51.5072 / 0.1276)

Sorry there are no passes over London.